Location: Pl�tzky
(52.0521°N, 11.8020°E)
Time: 22:42:40
(UTC+00:00)

Cosmos 1470 Rocket - Pass Details

Date: 22 November 2019
Orbit: 604 x 633 km, 82.5° (Epoch: 09 December)

Event Time Altitude Azimuth Distance (km) Brightness Sun altitude
Rises 17:12:58 0° 346° (NNW) 2,944 7.1 -17.9°
Reaches altitude 10° 17:15:15 10° 342° (NNW) 2,030 6.3 -18.2°
Maximum altitude 17:19:40 57° 265° (W) 747 4.2 -18.9°
Drops below altitude 10° 17:24:01 10° 187° (S) 2,006 6.3 -19.6°
Sets 17:26:16 0° 183° (S) 2,905 7.1 -19.9°
